Tracking 30995 objects as of 5-Jul-2025
HD Live streaming from Space Station
objects crossing your sky now

FENGYUN 1C DEB

Track FENGYUN 1C DEB now!
10-day predictions


NORAD ID: 30599
Int'l Code: 1999-025AME
Perigee: 615.1 km
Apogee: 1,057.4 km
Inclination: 98.6 °
Period: 101.5 minutes
Semi major axis: 7207 km
RCS: 0.0171 m2 (small)
Launch date: May 10, 1999
Source: People's Republic of China (PRC)
Launch site: Taiyaun Space Center, China (TSC)

Note: This is SATELLITE DEBRIS
Your satellite tracking list
Your tracking list is empty




NASA's NSSDC Master Catalog

Two Line Element Set (TLE):
1 30599U 99025AME 25186.01238680  .00002018  00000-0  61956-3 0  9992
2 30599  98.6079 201.9148 0306808  89.3218 274.3098 14.18895857949144
Source of the keplerian elements: AFSPC